Content
SEND FEEDBACK

Daily
Averages
Monthly
Summary
France

AVIGNON, FRANCE


Home > Europe > France
Elevation: 187 feet     Latitude: 44 00N     Longitude: 004 45E

WEATHER
 
SELECT A DAY
Number of Records: 167,187;   Date Range: 5/17/04 - 7/27/14
 
SHARE

PRINT THIS DATA

[ ← Previous Day ]
WEATHER ALMANAC - MARCH 31, 2013
[ Next Day → ]
[ °C ]   °F
Weather ElementAverageHighLow
Temperature47 °F53.6 °F (3:00 pm)39.2 °F (3:30 am)
Dewpoint35 °F42.8 °F (7:00 am)28.4 °F (7:00 pm)
Humidity65.2 %100 % (4:30 am)43 % (7:00 pm)
Barometer29.64 in29.68 in (9:00 am)29.62 in (5:00 am)
Wind Speed16.2 mph27.6 mph (1:30 pm)
Wind Gust40.3 mph (2:00 pm)
Weather ElementAverage
Visibility6.2 mi
Wind DirectionW (268.7 °)

Weather ElementTotal
Precipitation---
Heating Degree Days18.6 (Base 65)
Averaged from 47 records on March 31, 2013
WEATHER CONDITIONS BREAKOUT
WIND DIRECTION BREAKOUT
WEATHER BY HOUR - MARCH 31, 2013
[ °C ]   °F
Local TimeTemperatureDewpointHumidityBarometerVisibilityWind DirectionWind SpeedGust SpeedPrecipitationEventsConditions
12:00 AM42.8 °F30.2 °F61 %29.62 in6.2 miNNW (340°)13.8 mph
12:30 AM41.0 °F39.2 °F93 %29.65 in6.2 miCalm
12:30 AM41.0 °F30.2 °F65 %29.62 in6.2 miNNW (340°)12.7 mph
1:00 AM42.8 °F41.0 °F93 %29.65 in6.2 miVariable1.2 mph
1:30 AM42.8 °F41.0 °F93 %29.65 in6.2 miVariable3.5 mph
3:00 AM42.8 °F39.2 °F87 %29.65 in6.2 miVariable1.2 mph
3:30 AM39.2 °F37.4 °F93 %29.65 in6.2 miVariable1.2 mph
4:00 AM39.2 °F37.4 °F93 %29.65 in6.2 miCalmMostly Cloudy
4:30 AM39.2 °F39.2 °F100 %29.65 in6.2 miCalmMostly Cloudy
5:00 AM39.2 °F39.2 °F100 %29.62 in6.2 miCalmOvercast
5:30 AM41.0 °F39.2 °F93 %29.62 in6.2 miVariable2.3 mphMostly Cloudy
6:00 AM42.8 °F41.0 °F93 %29.65 in6.2 miVariable1.2 mphOvercast
6:30 AM48.2 °F41.0 °F76 %29.65 in6.2 miNW (320°)9.2 mphOvercast
7:00 AM48.2 °F42.8 °F82 %29.65 in6.2 miNNW (330°)12.7 mphOvercast
7:30 AM46.4 °F39.2 °F76 %29.65 in6.2 miNNW (340°)16.1 mphOvercast
8:00 AM46.4 °F37.4 °F71 %29.65 in6.2 miNNW (340°)17.3 mphOvercast
8:30 AM46.4 °F37.4 °F71 %29.65 in6.2 miNNW (340°)16.1 mphMostly Cloudy
9:00 AM46.4 °F37.4 °F71 %29.68 in6.2 miNorth (350°)16.1 mph
9:30 AM48.2 °F35.6 °F62 %29.65 in6.2 miNorth (360°)23.0 mph
10:00 AM48.2 °F35.6 °F62 %29.65 in6.2 miNorth (350°)25.3 mph
10:30 AM48.2 °F35.6 °F62 %29.68 in6.2 miNorth (350°)23.0 mph35.7 mph
11:00 AM50.0 °F35.6 °F58 %29.68 in6.2 miNorth (350°)25.3 mph36.8 mphPartly Cloudy
11:30 AM50.0 °F35.6 °F58 %29.68 in6.2 miNorth (350°)25.3 mph
12:00 PM50.0 °F37.4 °F62 %29.68 in6.2 miNorth (350°)23.0 mph34.5 mphScattered Clouds
12:30 PM50.0 °F37.4 °F62 %29.68 in6.2 miNorth (350°)25.3 mphPartly Cloudy
1:00 PM50.0 °F37.4 °F62 %29.68 in6.2 miNorth (360°)23.0 mphPartly Cloudy
1:30 PM50.0 °F37.4 °F62 %29.68 in6.2 miNorth (360°)27.6 mphPartly Cloudy
2:00 PM51.8 °F35.6 °F54 %29.68 in6.2 miNNW (340°)27.6 mph40.3 mphPartly Cloudy
2:30 PM51.8 °F35.6 °F54 %29.65 in6.2 miNorth (360°)21.9 mphPartly Cloudy
3:00 PM53.6 °F32.0 °F44 %29.65 in6.2 miNorth (350°)24.2 mph
3:30 PM53.6 °F33.8 °F47 %29.65 in6.2 miNorth (350°)21.9 mph
4:00 PM53.6 °F33.8 °F47 %29.65 in6.2 miNorth (350°)21.9 mph34.5 mph
4:30 PM53.6 °F32.0 °F44 %29.62 in6.2 miNorth (360°)21.9 mph
5:00 PM53.6 °F32.0 °F44 %29.65 in6.2 miNorth (360°)19.6 mph
5:30 PM51.8 °F32.0 °F47 %29.62 in6.2 miNorth (360°)21.9 mph
6:00 PM51.8 °F32.0 °F47 %29.62 in6.2 miNorth (360°)21.9 mph
6:30 PM51.8 °F30.2 °F44 %29.62 in6.2 miNorth (360°)23.0 mph
7:00 PM50.0 °F28.4 °F43 %29.62 in6.2 miNorth (360°)20.7 mph33.4 mph
7:30 PM50.0 °F28.4 °F43 %29.62 in6.2 miNorth (360°)21.9 mph
8:00 PM48.2 °F30.2 °F50 %29.62 in6.2 miNorth (10°)20.7 mph34.5 mph
8:30 PM46.4 °F30.2 °F53 %29.62 in6.2 miNorth (360°)21.9 mph
9:00 PM46.4 °F30.2 °F53 %29.62 in6.2 miNorth (350°)19.6 mph
9:30 PM46.4 °F30.2 °F53 %29.62 in6.2 miNorth (360°)17.3 mph31.1 mph
10:00 PM44.6 °F30.2 °F57 %29.62 in6.2 miNorth (350°)20.7 mph
10:30 PM44.6 °F30.2 °F57 %29.62 in6.2 miNorth (350°)20.7 mph
11:00 PM42.8 °F30.2 °F61 %29.62 in6.2 miNorth (350°)17.3 mph28.8 mph
11:30 PM42.8 °F30.2 °F61 %29.62 in6.2 miNorth (350°)11.5 mph
Hourly data recorded from LFMV, located miles away from Avignon, France







STORIES FROM OUR PARTNERS